Home   Weather   Lancaster   Past weeks
Flag for USA

Past Weather in Lancaster, Pennsylvania, USA — Yesterday and Last 2 Weeks

Now
59 °F

Clear.


Feels Like: 59 °F
Forecast: 65 / 49 °F
Wind: 5 mph from South

Location: Lancaster Airport

Current Time: Oct 15, 2019 at 8:32:17 pm

Latest Report: Oct 15, 2019 at 7:53 pm


Visibility: 10 mi

Pressure: 30.06 "Hg

Humidity: 51%

Dew Point: 41 °F

Location of LancasterLocation

Past Weather in Lancaster — Graph

°F

Lancaster Temperature Yesterday

Maximum temperature yesterday: 73 °F (at 2:53 pm)
Minimum temperature yesterday: 47 °F (at 7:24 am)
Average temperature yesterday: 59 °F

High & Low Weather Summary for the Past Weeks

 TemperatureHumidityPressure
High94 °F (Oct 2, 12:53 pm)93% (Oct 3, 1:31 pm)30.46 "Hg (Oct 3, 1:31 pm)
Low39 °F (Oct 13, 5:53 am)27% (Oct 14, 3:53 pm)29.79 "Hg (Oct 2, 4:53 pm)
Average62 °F69%30.11 "Hg
* Reported Sep 30 6:53 pm — Oct 15 6:53 pm, Lancaster. Weather by CustomWeather, © 2019

Note: Actual official high and low records may vary slightly from our data, if they occured in-between our weather recording intervals... More about our weather records

Advertising

Lancaster Weather History for the Previous 24 Hours

Scroll right to see more
 ConditionsComfort  
Time TempWeatherWind HumidityBarometerVisibility
6:53 pm
Tue, Oct 15
62 °FClear.9 mph46%30.05 "Hg10 mi
5:53 pm62 °FSunny.5 mph50%30.05 "Hg10 mi
4:53 pm67 °FSunny.3 mph37%30.06 "Hg10 mi
3:53 pm67 °FSunny.No wind36%30.08 "Hg10 mi
2:53 pm66 °FSunny.6 mph37%30.11 "Hg10 mi
1:53 pm64 °FSunny.No wind41%30.13 "Hg10 mi
12:53 pm64 °FSunny.3 mph40%30.16 "Hg10 mi
11:53 am61 °FSunny.3 mph44%30.18 "Hg10 mi
10:53 am60 °FSunny.No wind47%30.19 "Hg10 mi
9:53 am56 °FSunny.No wind62%30.19 "Hg10 mi
8:53 am51 °FSunny.No wind74%30.20 "Hg10 mi
7:53 am43 °FSunny.3 mph82%30.19 "Hg10 mi
6:53 am45 °FClear.No wind80%30.17 "Hg10 mi
5:53 am46 °FClear.No wind77%30.15 "Hg10 mi
4:53 am47 °FClear.No wind74%30.13 "Hg10 mi
3:53 am47 °FClear.No wind74%30.11 "Hg10 mi
2:53 am48 °FClear.5 mph71%30.10 "Hg10 mi
1:53 am50 °FClear.No wind68%30.10 "Hg10 mi
12:53 am49 °FClear.No wind71%30.09 "Hg10 mi
11:53 pm
Mon, Oct 14
51 °FClear.No wind69%30.07 "Hg10 mi
10:53 pm53 °FClear.No wind61%30.06 "Hg10 mi
9:53 pm59 °FClear.5 mph51%30.05 "Hg10 mi
8:53 pm59 °FClear.5 mph51%30.03 "Hg10 mi
Weather by CustomWeather, © 2019

See weather overview